[TLELIST] Archives

 

[TLELIST] Current TLEs

November 27th 2023 PDT

HST 1 20580U 90037B 23330.94633067 .00007663 00000-0 38975-3 0 9990 2 20580 28.4695 263.7699 0002636 345.1717 76.5246 15.14984271646152 ISS (ZARYA) 1 25544U 98067A 23331.27976751 .00011842 00000-0 21649-3 0 9997 2 25544 51.6430 240.7391 0001085 183.4325 320.4634 15.49820584427086 CXO 1 25867U 99040B 23331.89508405 .00000465 00000-0 00000-0 0 9996 2 25867 37.7596 175.9185 9034086 279.4962 359.7949 0.37810293 13803 ...Continue Reading

[TLELIST] Current TLEs

November 26th 2023 PDT

HST 1 20580U 90037B 23330.16948733 .00012553 00000-0 64456-3 0 9990 2 20580 28.4696 268.9519 0002550 335.8135 160.6036 15.14977685646294 ISS (ZARYA) 1 25544U 98067A 23330.24612828 .00028195 00000-0 50451-3 0 9997 2 25544 51.6437 245.8600 0000539 252.8003 240.2967 15.49759421426920 CXO 1 25867U 99040B 23331.89508405 .00000465 00000-0 00000+0 0 9995 2 25867 37.7596 175.9185 9034086 279.4962 359.7949 0.37810293 24951 ...Continue Reading

[TLELIST] Current TLEs

November 25th 2023 PDT

HST 1 20580U 90037B 23328.63048611 .00007732 00000-0 39384-3 0 9990 2 20580 28.4695 279.2188 0002533 319.1292 47.0883 15.14942599645800 ISS (ZARYA) 1 25544U 98067A 23329.27915755 .00050600 00000-0 89789-3 0 9995 2 25544 51.6431 250.6519 0000852 322.5156 172.2368 15.49715476426773 CXO 1 25867U 99040B 23329.25164999 .00000488 00000-0 00000-0 0 9994 2 25867 37.7275 176.3330 9033650 279.1471 359.9818 0.37812041 13790 ...Continue Reading

[TLELIST] Current TLEs

November 25th 2023 PDT

HST 1 20580U 90037B 23328.63048611 .00007732 00000-0 39384-3 0 9990 2 20580 28.4695 279.2188 0002533 319.1292 47.0883 15.14942599645800 ISS (ZARYA) 1 25544U 98067A 23329.27915755 .00050600 00000-0 89789-3 0 9995 2 25544 51.6431 250.6519 0000852 322.5156 172.2368 15.49715476426773 CXO 1 25867U 99040B 23329.25164999 .00000488 00000-0 00000-0 0 9994 2 25867 37.7275 176.3330 9033650 279.1471 359.9818 0.37812041 13790 ...Continue Reading

[TLELIST] Current TLEs

November 24th 2023 PDT

HST 1 20580U 90037B 23327.71192130 .00007677 00000-0 39113-3 0 9992 2 20580 28.4696 285.3469 0002499 307.6848 78.9138 15.14927818645668 ISS (ZARYA) 1 25544U 98067A 23328.50968601 .00025151 00000-0 45277-3 0 9995 2 25544 51.6431 254.4591 0000832 346.4532 172.6917 15.49652396426658 CXO 1 25867U 99040B 23329.25164999 .00000488 00000-0 00000-0 0 9994 2 25867 37.7275 176.3330 9033650 279.1471 359.9818 0.37812041 13790 ...Continue Reading

[TLELIST] Current TLEs

November 24th 2023 PDT

HST 1 20580U 90037B 23327.71192130 .00007677 00000-0 39113-3 0 9992 2 20580 28.4696 285.3469 0002499 307.6848 78.9138 15.14927818645668 ISS (ZARYA) 1 25544U 98067A 23328.50968601 .00025151 00000-0 45277-3 0 9995 2 25544 51.6431 254.4591 0000832 346.4532 172.6917 15.49652396426658 CXO 1 25867U 99040B 23329.25164999 .00000488 00000-0 00000-0 0 9994 2 25867 37.7275 176.3330 9033650 279.1471 359.9818 0.37812041 13790 ...Continue Reading

[TLELIST] Current TLEs

November 23rd 2023 PDT

HST 1 20580U 90037B 23326.72000000 .00007646 00000-0 38966-3 0 9997 2 20580 28.4698 291.9641 0002466 295.5682 70.6009 15.14912842645511 ISS (ZARYA) 1 25544U 98067A 23327.34619826 .00029136 00000-0 52397-3 0 9996 2 25544 51.6432 260.2230 0000586 338.4061 165.7726 15.49598018426479 CXO 1 25867U 99040B 23329.25164999 .00000488 00000-0 00000+0 0 9993 2 25867 37.7275 176.3330 9033650 279.1471 359.9818 0.37812041 24949 ...Continue Reading

[TLELIST] Current TLEs

November 22nd 2023 PDT

HST 1 20580U 90037B 23326.16114583 .00006476 00000-0 32865-3 0 9999 2 20580 28.4697 295.6919 0002452 288.7938 263.4982 15.14903039645691 ISS (ZARYA) 1 25544U 98067A 23326.37902759 .00017742 00000-0 32340-3 0 9994 2 25544 51.6432 265.0091 0000878 322.7179 182.5809 15.49533366426325 CXO 1 25867U 99040B 23329.25099932 .00000488 00000-0 00000+0 0 9997 2 25867 37.7281 176.3450 9033652 279.1353 359.8939 0.37813386 24946 ...Continue Reading

[TLELIST] Current TLEs

November 21st 2023 PDT

HST 1 20580U 90037B 23325.15375147 .00004384 00000-0 21938-3 0 9997 2 20580 28.4700 302.4118 0002456 276.7214 170.6752 15.14888597645530 ISS (ZARYA) 1 25544U 98067A 23325.21736263 .00026225 00000-0 47429-3 0 9991 2 25544 51.6423 270.7612 0000973 310.2609 190.7080 15.49496228426140 CXO 1 25867U 99040B 23323.96475560 .00000830 00000-0 00000-0 0 9996 2 25867 37.6703 177.0577 9029864 278.5648 0.1916 0.37811884 13762 ...Continue Reading

[TLELIST] Current TLEs

November 21st 2023 PDT

HST 1 20580U 90037B 23325.15375147 .00004384 00000-0 21938-3 0 9997 2 20580 28.4700 302.4118 0002456 276.7214 170.6752 15.14888597645530 ISS (ZARYA) 1 25544U 98067A 23325.21736263 .00026225 00000-0 47429-3 0 9991 2 25544 51.6423 270.7612 0000973 310.2609 190.7080 15.49496228426140 CXO 1 25867U 99040B 23323.96475560 .00000830 00000-0 00000-0 0 9996 2 25867 37.6703 177.0577 9029864 278.5648 0.1916 0.37811884 13762 ...Continue Reading
  • This mailing list is a public mailing list - anyone may join or leave, at any time.
  • This mailing list is announce-only.

International Space Station (ISS) / Hubble Space Telescope (HST) / Chandra X-Ray Observatory Orbital Data via EMAIL

Privacy Policy:

Private list